Voltar ao catálogo

SHENQI

AtivoCiênciaSSO
NORAD 61230·PAYLOAD·🇨🇳 China
Este nome de satélite ainda não foi confirmado por fontes oficiais.

Lançado Sep 24, 2024 de Yellow Sea Launch Area

Loading…

Próximas Passagens (próximas 24 horas)

TLE

AtualizadoSource: Space-Track

Época: Sep 14, 2026, 13:13 UTC

1 61230U 24173D   26257.55076242  .00011550  00000-0  37163-3 0  9997
2 61230  97.3494 336.0447 0007306 302.1126  57.9407 15.32366536110136

Acompanhe SHENQI em tempo real com AllMySat

Download on the App Store